User: anonymous   Login
Location: Unspecified
(0.0000°N, 0.0000°E)
Time: 15:13:29
(UTC+00:00)
Language:

RAX-2 - Orbit

View from above orbital plane
View from above orbital plane
View from above satellite
View from above satellite

Ground track
Ground track

The orbit data is extracted from the following two-line orbital elements,

1 37853U 11061D   15182.20036169  .00002279  00000-0  14534-3 0  9999
2 37853 101.7099 040.1294 0196154 034.7905 078.7088 14.96304923199209
Epoch (UTC): 01 July 2015 04:48:31
Eccentricity: 0.0196154
inclination: 101.7099°
perigee height: 442 km
apogee height: 715 km
right ascension of ascending node: 40.1294°
argument of perigee: 34.7905°
revolutions per day: 14.96304923
mean anomaly at epoch: 78.7088°
orbit number at epoch: 19920

The dashed part of the orbit path shows where the satellite is in the earth's shadow,  

DLR